Tracking 19562 objects as of 21-Mar-2019
HD Live streaming from Space Station
objects crossing your sky now

METEOR 1-19

Track METEOR 1-19 now!
10-day predictions
METEOR 1-19 is classified as:


NORAD ID: 7490
Int'l Code: 1974-083A
Perigee: 844.1 km
Apogee: 888.8 km
Inclination: 81.2 °
Period: 102.1 minutes
Semi major axis: 7237 km
RCS: 4.6009 m2 (large)
Launch date: October 28, 1974
Source: Commonwealth of Independent States (former USSR) (CIS)
Launch site: PLESETSK MISSILE AND SPACE COMPLEX (PKMTR)
aabbcc
Your satellite tracking list
Your tracking list is empty




NASA's NSSDC Master Catalog

Two Line Element Set (TLE):
1  7490U 74083A   19079.78862917 -.00000095  00000-0 -60889-4 0  9997
2  7490  81.1897 209.7356 0030866 358.6413   1.4668 14.10016863282299
Source of the keplerian elements: AFSPC